• Join FlightAware (Why Join?)
  • Login
  • US Flag 
11:25PM EDT


 

Airport Tracker/Info


-or-


 

Live Flight TrackerFlight Track Log ✈ SWA1841 ✈ 16-Apr-2013 ✈ KPHX - KHOU

Flight Track Log - Related Links

Times and Time Zones

All times are in EDT time to prevent confusion due to time zone crossing. See the SWA1841 flight status page for this flight to view local times or setup timezone preferences in your user account.

Time Position Orientation Groundspeed Altitude Reporting Facility
EDT Latitude Longitude Course Direction KTS MPH feet Rate Location/Type
05:40PM 33.4333 -112.0167 260° West 164 189 1,700  Level Phoenix TRACON
05:40PM 33.4308 -112.0342 260° West 158 182 2,300 2,520 Climbing Albuquerque Center
05:41PM 33.4156 -112.0922 253° West 189 217 4,900 3,060 Climbing Albuquerque Center
05:42PM 33.3922 -112.1578 247° West 222 255 8,600 2,700 Climbing Albuquerque Center
05:43PM 33.3289 -112.1397 167° South 261 300 10,600 2,220 Climbing Albuquerque Center
05:44PM 33.2478 -112.0978 157° South 314 361 13,200 3,120 Climbing Albuquerque Center
05:45PM 33.1431 -112.0425 156° South 344 396 17,000 3,240 Climbing Albuquerque Center
05:46PM 33.0508 -111.9933 156° South 361 415 19,900 2,580 Climbing Albuquerque Center
05:47PM 32.9533 -111.9428 156° South 380 437 22,300 2,340 Climbing Albuquerque Center
05:48PM 32.8656 -111.8614 142° Southeast 410 472 24,700 2,040 Climbing Albuquerque Center
05:50PM 32.8058 -111.7361 120° Southeast 434 499 26,600 1,740 Climbing Albuquerque Center
05:51PM 32.7442 -111.6028 119° Southeast 456 525 28,300 1,740 Climbing Albuquerque Center
05:52PM 32.6642 -111.4339 119° Southeast 477 549 30,200 1,620 Climbing Albuquerque Center
05:53PM 32.5994 -111.2994 120° Southeast 483 556 31,700 1,440 Climbing Albuquerque Center
05:54PM 32.5322 -111.1561 119° Southeast 490 564 33,200 1,380 Climbing Albuquerque Center
05:55PM 32.4644 -111.0131 119° Southeast 494 568 34,600 960 Climbing Albuquerque Center
05:56PM 32.3944 -110.8697 120° Southeast 501 577 35,200 780 Climbing Albuquerque Center
05:57PM 32.3481 -110.7028 108° East 524 603 36,300 1,200 Climbing Albuquerque Center
05:58PM 32.3278 -110.5322 98° East 533 613 37,700 1,200 Climbing Albuquerque Center
05:59PM 32.3056 -110.3233 97° East 534 615 38,800 600 Climbing Albuquerque Center
06:00PM 32.2869 -110.1492 97° East 530 610 39,000 60 Climbing Albuquerque Center
06:01PM 32.2683 -109.9797 97° East 527 606 39,000  Level Albuquerque Center
06:02PM 32.2472 -109.8089 98° East 531 611 39,000  Level Albuquerque Center
06:03PM 32.2300 -109.6414 97° East 525 604 39,000  Level Albuquerque Center
06:04PM 32.2125 -109.4744 97° East 521 600 39,000  Level Albuquerque Center
06:05PM 32.1900 -109.2758 98° East 518 596 39,000  Level Albuquerque Center
06:06PM 32.1719 -109.1119 97° East 514 592 39,000  Level Albuquerque Center
06:07PM 32.1525 -108.9467 98° East 515 593 39,000  Level Albuquerque Center
06:08PM 32.1331 -108.7819 98° East 514 592 39,000  Level Albuquerque Center
06:09PM 32.1139 -108.6181 98° East 514 592 39,000  Level Albuquerque Center
06:10PM 32.0911 -108.4214 98° East 511 588 39,000  Level Albuquerque Center
06:11PM 32.0719 -108.2611 98° East 506 582 39,000  Level Albuquerque Center
06:12PM 32.0522 -108.1022 98° East 506 582 39,000 -60 Level Albuquerque Center
06:13PM 32.0325 -107.9411 98° East 502 578 38,900  Descending Albuquerque Center
06:14PM 32.0122 -107.7797 98° East 502 578 39,000  Climbing Albuquerque Center
06:15PM 31.9892 -107.5878 98° East 499 574 39,000 -60 Level Albuquerque Center
06:16PM 31.9686 -107.4281 99° East 498 573 38,900  Descending Albuquerque Center
06:17PM 31.9483 -107.2678 98° East 499 574 39,000  Climbing Albuquerque Center
06:18PM 31.9278 -107.1081 99° East 499 574 38,900 -60 Descending Albuquerque Center
06:19PM 31.9067 -106.9500 99° East 496 571 38,900  Level Albuquerque Center
06:20PM 31.8806 -106.7583 99° East 498 573 39,000  Climbing Albuquerque Center
06:21PM 31.8597 -106.5972 99° East 502 578 39,000  Level Albuquerque Center
06:22PM 31.8394 -106.4394 99° East 504 580 39,000  Level Albuquerque Center
06:23PM 31.8164 -106.2772 99° East 505 581 39,000  Level Albuquerque Center
06:24PM 31.7953 -106.1172 99° East 498 573 39,000  Level Albuquerque Center
06:26PM 31.7764 -105.9564 98° East 498 573 39,000 -60 Level Albuquerque Center
06:27PM 31.7533 -105.7631 98° East 498 573 38,900  Descending Albuquerque Center
06:28PM 31.7333 -105.6083 99° East 482 555 39,000  Climbing Albuquerque Center
06:29PM 31.7147 -105.4519 98° East 482 555 39,000 -60 Level Albuquerque Center
06:30PM 31.6958 -105.2961 98° East 480 552 38,900  Descending Albuquerque Center
06:31PM 31.6764 -105.1406 98° East 480 552 39,000  Climbing Albuquerque Center
06:32PM 31.6572 -104.9850 98° East 480 552 39,000  Level Albuquerque Center
06:33PM 31.6369 -104.8303 99° East 478 550 39,000 -60 Level Albuquerque Center
06:34PM 31.6136 -104.6411 98° East 483 556 38,900 -60 Descending Albuquerque Center
06:35PM 31.5931 -104.4836 99° East 486 559 38,900  Level Albuquerque Center
06:36PM 31.5719 -104.3244 99° East 488 562 39,000  Climbing Albuquerque Center
06:37PM 31.5506 -104.1650 99° East 491 565 39,000  Level Albuquerque Center
06:38PM 31.5294 -104.0061 99° East 492 566 39,000  Level Albuquerque Center
06:39PM 31.5078 -103.8464 99° East 494 568 39,000  Level Albuquerque Center
06:40PM 31.4875 -103.6928 99° East 490 564 39,000  Level Albuquerque Center
06:41PM 31.4589 -103.5022 100° East 492 566 39,000  Level Albuquerque Center
06:42PM 31.4408 -103.3447 98° East 491 565 39,000  Level Albuquerque Center
06:43PM 31.4219 -103.1875 98° East 489 563 39,000  Level Albuquerque Center
06:44PM 31.4014 -103.0311 99° East 489 563 39,000  Level Albuquerque Center
06:45PM 31.3814 -102.8744 98° East 487 560 39,000  Level Albuquerque Center
06:46PM 31.3614 -102.7169 98° East 488 562 39,000  Level Albuquerque Center
06:47PM 31.3408 -102.5597 99° East 489 563 39,000  Level Albuquerque Center
06:48PM 31.3156 -102.3664 99° East 500 575 39,000  Level Albuquerque Center
06:49PM 31.2947 -102.2125 99° East 489 563 39,000  Level Albuquerque Center
06:50PM 31.2744 -102.0561 99° East 487 560 39,000  Level Albuquerque Center
06:51PM 31.2525 -101.8850 98° East 486 559 39,000  Level Albuquerque Center
06:52PM 31.2311 -101.7275 99° East 488 562 39,000  Level Albuquerque Center
06:54PM 31.2014 -101.5083 99° East 491 565 39,000  Level Houston Center
06:55PM 31.1806 -101.3511 99° East 491 565 39,000  Level Houston Center
06:56PM 31.1586 -101.2036 100° East 486 559 39,000  Level Houston Center
06:57PM 31.1333 -101.0139 99° East 491 565 39,000  Level Houston Center
06:58PM 31.1100 -100.8597 100° East 485 558 39,000  Level Houston Center
06:59PM 31.0881 -100.7042 99° East 485 558 39,000  Level Houston Center
07:00PM 31.0664 -100.5500 99° East 483 556 39,000  Level Houston Center
07:01PM 31.0447 -100.3972 99° East 481 554 39,000  Level Houston Center
07:02PM 31.0217 -100.2433 100° East 481 554 39,000  Level Houston Center
07:03PM 30.9933 -100.0572 100° East 485 558 39,000  Level Houston Center
07:04PM 30.9692 -99.9014 100° East 487 560 39,000  Level Houston Center
07:05PM 30.9467 -99.7475 100° East 484 557 39,000  Level Houston Center
07:06PM 30.9225 -99.5928 100° East 485 558 39,000  Level Houston Center
07:07PM 30.8986 -99.4392 100° East 483 556 39,000  Level Houston Center
07:08PM 30.8750 -99.2856 100° East 481 554 39,000  Level Houston Center
07:09PM 30.8461 -99.1044 100° East 480 552 39,000 -540 Level Houston Center
07:10PM 30.8211 -98.9508 101° East 480 552 38,000 -960 Descending Houston Center
07:11PM 30.7972 -98.8000 100° East 473 544 37,100 -960 Descending Houston Center
07:12PM 30.7819 -98.6472 97° East 470 541 36,100 -1,020 Descending Houston Center
07:13PM 30.7686 -98.4953 96° East 470 541 35,100 -540 Descending Houston Center
07:14PM 30.7539 -98.3436 96° East 469 540 35,000 -60 Descending Houston Center
07:15PM 30.7400 -98.1903 96° East 473 544 35,000  Level Houston Center
07:17PM 30.7228 -98.0133 96° East 471 542 35,000  Level Houston Center
07:18PM 30.7058 -97.8606 97° East 473 544 35,000 -300 Level Houston Center
07:19PM 30.6908 -97.7078 96° East 475 547 34,400 -780 Descending Houston Center
07:20PM 30.6764 -97.5567 96° East 470 541 33,400 -1,200 Descending Houston Center
07:21PM 30.6619 -97.4097 96° East 462 532 32,000 -1,860 Descending Houston Center
07:22PM 30.6442 -97.2433 97° East 446 513 29,600 -2,520 Descending Houston Center
07:23PM 30.6006 -97.1156 112° Southeast 430 495 26,900 -1,860 Descending Houston Center
07:24PM 30.5481 -96.9911 116° Southeast 428 493 25,800 -1,620 Descending Houston Center
07:25PM 30.4964 -96.8714 117° Southeast 416 479 23,600 -2,100 Descending Houston Center
07:26PM 30.4450 -96.7531 117° Southeast 409 471 21,500 -2,100 Descending Houston Center
07:27PM 30.3953 -96.6394 117° Southeast 396 456 19,300 -2,100 Descending Houston Center
07:28PM 30.3453 -96.5272 117° Southeast 390 449 17,200 -2,340 Descending Houston Center
07:28PM 30.3222 -96.4708 115° Southeast 384 442 16,100 -2,460 Descending Houston Center
07:29PM 30.2897 -96.3986 118° Southeast 381 438 14,700 -2,160 Descending Houston Center
07:29PM 30.2756 -96.3647 116° Southeast 380 437 13,900 -2,160 Descending Houston Center
07:30PM 30.2419 -96.2903 118° Southeast 376 433 12,500 -2,220 Descending Houston Center
07:30PM 30.2242 -96.2519 118° Southeast 375 432 11,700 -1,500 Descending Houston Center
07:31PM 30.1872 -96.1947 127° Southeast 358 412 11,000 -720 Descending Houston Center
07:31PM 30.1572 -96.1797 157° South 324 373 11,000  Level Houston Center
07:32PM 30.0981 -96.1492 156° South 330 380 11,000  Level Houston Center
07:32PM 30.0694 -96.1342 156° South 343 395 11,000  Level Houston Center
07:33PM 30.0097 -96.1025 155° Southeast 343 395 11,000  Level Houston Center
07:33PM 29.9836 -96.0883 155° Southeast 347 399 11,000  Level Houston Center
07:34PM 29.9219 -96.0553 155° Southeast 347 399 11,000  Level Houston Center
07:34PM 29.8914 -96.0386 155° Southeast 344 396 11,000  Level Houston Center
07:35PM 29.8311 -96.0078 156° South 346 398 11,000 -240 Level Houston Center
07:36PM 29.7569 -95.9567 149° Southeast 319 367 10,600 -420 Descending Houston Center
07:36PM 29.7394 -95.9333 131° Southeast 281 323 10,500 -420 Descending Houston Center
07:37PM 29.7061 -95.8942 134° Southeast 273 314 10,200 -720 Descending Houston Center
07:38PM 29.6611 -95.8367 132° Southeast 246 283 9,200 -1,140 Descending Houston Center
07:39PM 29.6289 -95.7572 115° Southeast 244 281 7,900 -1,080 Descending Houston Center
07:40PM 29.6406 -95.6806 80° East 242 278 7,000 -1,140 Descending Houston Center
07:41PM 29.6556 -95.6039 77° East 231 266 5,600 -1,200 Descending Houston Center
07:42PM 29.6922 -95.5444 55° Northeast 228 262 4,600 -1,020 Descending Houston Center
07:43PM 29.7369 -95.5031 39° Northeast 193 222 3,600 -1,020 Descending Houston Center
07:44PM 29.7711 -95.4692 41° Northeast 189 217 2,500 -780 Descending Houston Center
07:45PM 29.7608 -95.4189 103° East 172 198 2,000 -300 Descending Houston Center
07:46PM 29.7275 -95.3767 132° Southeast 146 168 2,000 -300 Level Houston Center
07:47PM 29.6992 -95.3439 135° Southeast 133 153 1,500 -600 Descending Houston Center
07:48PM 29.6756 -95.3156 134° Southeast 125 144 800 -660 Descending Houston Center
07:50PM 29.6494 -95.2844 134° Southeast 131 151 100 -660 Descending Houston Center
07:52PM 29.6454 -95.2789 115° Southeast  Level Estimated